Location: Cheching
(60.0667°N, 164.2167°W)
Time: 14:27:45
(UTC+00:00)

STRAND 1 - Pass Details

Date: 26 January 2021
Orbit: 768 x 780 km, 98.4° (Epoch: 04 March)

Event Time Altitude Azimuth Distance (km) Brightness Sun altitude
Rises 16:14:11 0° 142° (SE) 3,242 ? -22.9°
Reaches altitude 10° 16:16:31 10° 138° (SE) 2,320 ? -22.6°
Maximum altitude 16:21:28 53° 62° (ENE) 957 ? -22.0°
Drops below altitude 10° 16:26:28 10° 347° (NNW) 2,342 ? -21.3°
Sets 16:28:51 0° 343° (NNW) 3,275 ? -21.0°
